Olivia, MN

8:33 PM CST on November 19, 2017 (GMT -0600)
Olivia Regional

Weather History for KOVL - October, 2012

Change the Weather History Date:

Monday, October 8, 2012

  Actual Average (KRWF) Record (KRWF)
Temperature  
Mean Temperature 50 °F -  
Max Temperature 66 °F 60 °F 90 °F (2010)
Min Temperature 33 °F 41 °F 16 °F (2000)
Degree Days  
Heating Degree Days 16    
Moisture  
Dew Point 29 °F    
Average Humidity 47    
Maximum Humidity 66    
Minimum Humidity 30    
Precipitation  
Precipitation 0.00 in - - ()
Sea Level Pressure  
Sea Level Pressure 29.70 in    
Wind  
Wind Speed 9 mph (SW)    
Max Wind Speed 26 mph    
Max Gust Speed 32 mph    
Visibility 10 miles    
Events Rain    
Averages and records for this station are not official NWS values.
T = Trace of Precipitation, MM = Missing Value Source: NWS Daily Summary

Daily Weather History Graph

Daily Weather History Graph

Search for Another Location

Airport or City:

Trip Planner

Search our weather history database for the weather conditions in past years. The results will help you decide how hot, cold, wet, or windy it might be!

Date:

Astronomy

Oct. 08, 2012 Rise Set
Actual Time 7:27 AM CDT 6:46 PM CDT
Civil Twilight 6:58 AM CDT 7:16 PM CDT
Nautical Twilight 6:24 AM CDT 7:49 PM CDT
Astronomical Twilight 5:50 AM CDT 8:23 PM CDT
Moon No Moon Rise 2:52 PM CDT (10/8)
Length of Visible Light 12h 18m
Length of Day
11h 19m
Last Quarter, 46% of the Moon is Illuminated
Oct 8
Last Quarter
Oct 15
New
Oct 21
First Quarter
Oct 29
Full
Nov 6
Last Quarter

Hourly Weather History & Observations

Time (CDT) Temp. Windchill Dew Point Humidity Pressure Visibility Wind Dir Wind Speed Gust Speed Precip Events Conditions
12:11 AM 35.6 °F 31.7 °F 17.6 °F 48% 29.82 in 10.0 mi South 4.6 mph - N/A   Clear
12:31 AM 35.6 °F 30.7 °F 19.4 °F 52% 29.82 in 10.0 mi South 5.8 mph - N/A   Clear
12:51 AM 35.6 °F 30.7 °F 19.4 °F 52% 29.82 in 10.0 mi South 5.8 mph - N/A   Clear
1:10 AM 35.6 °F 29.9 °F 19.4 °F 52% 29.82 in 10.0 mi South 6.9 mph - N/A   Clear
1:31 AM 35.6 °F 29.2 °F 19.4 °F 52% 29.81 in 10.0 mi South 8.1 mph - N/A   Clear
1:51 AM 35.6 °F 30.7 °F 19.4 °F 52% 29.81 in 10.0 mi South 5.8 mph - N/A   Clear
2:11 AM 35.6 °F 30.7 °F 19.4 °F 52% 29.81 in 10.0 mi South 5.8 mph - N/A   Clear
2:31 AM 33.8 °F 27.7 °F 19.4 °F 56% 29.81 in 10.0 mi South 6.9 mph - N/A   Clear
2:51 AM 35.6 °F 32.8 °F 19.4 °F 52% 29.80 in 10.0 mi SSW 3.5 mph - N/A   Clear
3:11 AM 35.6 °F 29.9 °F 19.4 °F 52% 29.80 in 10.0 mi SSW 6.9 mph - N/A   Clear
3:32 AM 35.6 °F 30.7 °F 21.2 °F 56% 29.79 in 10.0 mi SSW 5.8 mph - N/A   Clear
3:51 AM 35.6 °F 32.8 °F 21.2 °F 56% 29.78 in 10.0 mi South 3.5 mph - N/A   Mostly Cloudy
4:11 AM 35.6 °F 30.7 °F 21.2 °F 56% 29.77 in 10.0 mi South 5.8 mph - N/A   Overcast
4:31 AM 37.4 °F 32.8 °F 21.2 °F 52% 29.77 in 10.0 mi SSW 5.8 mph - N/A   Overcast
4:51 AM 39.2 °F 35.0 °F 21.2 °F 49% 29.76 in 10.0 mi South 5.8 mph - N/A   Overcast
5:11 AM 39.2 °F 35.0 °F 21.2 °F 49% 29.75 in 10.0 mi South 5.8 mph - N/A   Overcast
5:31 AM 41.0 °F 38.0 °F 23.0 °F 49% 29.75 in 10.0 mi South 4.6 mph - N/A   Overcast
5:51 AM 41.0 °F 37.1 °F 23.0 °F 49% 29.75 in 10.0 mi South 5.8 mph - N/A   Overcast
6:11 AM 39.2 °F 35.0 °F 23.0 °F 52% 29.74 in 10.0 mi South 5.8 mph - N/A   Scattered Clouds
6:31 AM 41.0 °F 37.1 °F 23.0 °F 49% 29.74 in 10.0 mi South 5.8 mph - N/A   Scattered Clouds
6:51 AM 41.0 °F 36.4 °F 23.0 °F 49% 29.73 in 10.0 mi South 6.9 mph - N/A   Mostly Cloudy
7:11 AM 42.8 °F 38.6 °F 24.8 °F 49% 29.72 in 10.0 mi South 6.9 mph - N/A   Scattered Clouds
7:31 AM 42.8 °F 39.3 °F 26.6 °F 53% 29.72 in 10.0 mi South 5.8 mph - N/A   Scattered Clouds
7:51 AM 42.8 °F 38.6 °F 26.6 °F 53% 29.72 in 10.0 mi South 6.9 mph - N/A   Scattered Clouds
8:11 AM 44.6 °F 40.2 °F 26.6 °F 49% 29.71 in 7.0 mi South 8.1 mph - N/A   Scattered Clouds
8:31 AM 44.6 °F 40.2 °F 28.4 °F 53% 29.71 in 10.0 mi South 8.1 mph - N/A   Scattered Clouds
8:51 AM 46.4 °F 41.5 °F 28.4 °F 50% 29.70 in 10.0 mi SSW 10.4 mph - N/A   Mostly Cloudy
9:11 AM 50.0 °F - 28.4 °F 43% 29.70 in 10.0 mi SSW 13.8 mph - N/A   Mostly Cloudy
9:30 AM 50.0 °F - 28.4 °F 43% 29.69 in 10.0 mi SSW 12.7 mph - N/A   Scattered Clouds
9:46 AM 50.0 °F - 28.4 °F 43% 29.69 in 10.0 mi SSW 11.5 mph - N/A   Scattered Clouds
10:10 AM 50.0 °F - 28.4 °F 43% 29.67 in 10.0 mi SSW 12.7 mph 17.3 mph N/A   Overcast
10:31 AM 51.8 °F - 28.4 °F 41% 29.67 in 10.0 mi SSW 16.1 mph 20.7 mph N/A   Overcast
10:51 AM 51.8 °F - 28.4 °F 41% 29.66 in 10.0 mi SSW 15.0 mph - N/A   Overcast
11:11 AM 53.6 °F - 28.4 °F 38% 29.65 in 10.0 mi SSW 16.1 mph 21.9 mph N/A   Mostly Cloudy
11:31 AM 53.6 °F - 30.2 °F 41% 29.64 in 10.0 mi SSW 17.3 mph 24.2 mph N/A   Scattered Clouds
11:51 AM 55.4 °F - 30.2 °F 38% 29.64 in 10.0 mi SSW 18.4 mph 23.0 mph N/A   Scattered Clouds
12:11 PM 57.2 °F - 30.2 °F 36% 29.63 in 10.0 mi SSW 17.3 mph 23.0 mph N/A   Mostly Cloudy
12:31 PM 57.2 °F - 32.0 °F 38% 29.61 in 10.0 mi SSW 16.1 mph - N/A   Overcast
12:51 PM 53.6 °F - 32.0 °F 44% 29.60 in 10.0 mi SSW 16.1 mph 19.6 mph N/A Rain Light Rain
1:11 PM 57.2 °F - 32.0 °F 38% 29.59 in 10.0 mi SSW 13.8 mph 21.9 mph N/A   Overcast
1:15 PM 57.2 °F - 32.0 °F 38% 29.59 in 10.0 mi South 16.1 mph 21.9 mph N/A   Overcast
1:51 PM 59.0 °F - 32.0 °F 36% 29.59 in 10.0 mi SSW 16.1 mph - N/A   Mostly Cloudy
2:11 PM 62.6 °F - 32.0 °F 32% 29.58 in 10.0 mi WSW 23.0 mph 27.6 mph N/A   Mostly Cloudy
2:31 PM 64.4 °F - 32.0 °F 30% 29.57 in 10.0 mi West 21.9 mph 27.6 mph N/A   Mostly Cloudy
2:51 PM 64.4 °F - 33.8 °F 32% 29.57 in 10.0 mi West 23.0 mph 27.6 mph N/A   Mostly Cloudy
3:12 PM 66.2 °F - 33.8 °F 30% 29.58 in 10.0 mi West 25.3 mph 29.9 mph N/A   Mostly Cloudy
3:31 PM 64.4 °F - 35.6 °F 34% 29.58 in 10.0 mi West 26.5 mph 31.1 mph N/A   Overcast
3:51 PM 64.4 °F - 35.6 °F 34% 29.59 in 10.0 mi West 23.0 mph 32.2 mph N/A   Overcast
4:12 PM 64.4 °F - 37.4 °F 37% 29.59 in 10.0 mi West 19.6 mph 26.5 mph N/A   Overcast
4:31 PM 62.6 °F - 37.4 °F 39% 29.60 in 10.0 mi WNW 18.4 mph 29.9 mph N/A   Overcast
4:51 PM 62.6 °F - 37.4 °F 39% 29.61 in 10.0 mi WNW 19.6 mph 25.3 mph N/A   Mostly Cloudy
5:11 PM 62.6 °F - 37.4 °F 39% 29.62 in 10.0 mi West 17.3 mph 24.2 mph N/A   Mostly Cloudy
5:31 PM 62.6 °F - 37.4 °F 39% 29.62 in 10.0 mi WNW 20.7 mph 25.3 mph N/A   Mostly Cloudy
5:51 PM 62.6 °F - 37.4 °F 39% 29.64 in 10.0 mi NW 24.2 mph 31.1 mph N/A   Mostly Cloudy
6:11 PM 59.0 °F - 37.4 °F 45% 29.66 in 10.0 mi NW 18.4 mph 25.3 mph N/A   Mostly Cloudy
6:31 PM 59.0 °F - 37.4 °F 45% 29.67 in 10.0 mi NW 13.8 mph 23.0 mph N/A   Mostly Cloudy
6:50 PM 57.2 °F - 35.6 °F 44% 29.68 in 10.0 mi NW 11.5 mph 20.7 mph N/A   Overcast
7:10 PM 57.2 °F - 35.6 °F 44% 29.69 in 10.0 mi NW 16.1 mph 21.9 mph N/A   Overcast
7:31 PM 55.4 °F - 35.6 °F 47% 29.70 in 10.0 mi NW 13.8 mph - N/A   Scattered Clouds
7:51 PM 53.6 °F - 35.6 °F 51% 29.72 in 10.0 mi NW 12.7 mph 17.3 mph N/A   Scattered Clouds
8:11 PM 53.6 °F - 35.6 °F 51% 29.72 in 10.0 mi NW 10.4 mph - N/A   Scattered Clouds
8:31 PM 51.8 °F - 35.6 °F 54% 29.72 in 10.0 mi NW 6.9 mph - N/A   Clear
8:51 PM 50.0 °F - 33.8 °F 54% 29.73 in 10.0 mi NW 5.8 mph - N/A   Clear
9:11 PM 50.0 °F - 33.8 °F 54% 29.73 in 10.0 mi WNW 3.5 mph - N/A   Clear
9:31 PM 50.0 °F - 35.6 °F 58% 29.74 in 10.0 mi WNW 3.5 mph - N/A   Clear
9:51 PM 50.0 °F - 35.6 °F 58% 29.74 in 10.0 mi Calm Calm - N/A   Clear
10:12 PM 46.4 °F - 33.8 °F 62% 29.74 in 10.0 mi Calm Calm - N/A   Clear
10:51 PM 44.6 °F 43.1 °F 33.8 °F 66% 29.74 in 7.0 mi SSW 3.5 mph - N/A   Scattered Clouds
11:11 PM 48.2 °F - 35.6 °F 62% 29.74 in 10.0 mi Calm Calm - N/A   Mostly Cloudy
11:31 PM 46.4 °F 44.3 °F 33.8 °F 62% 29.74 in 7.0 mi SSW 4.6 mph - N/A   Overcast